Location: Unspecified
(39.0670°S, 0.0000°E)
Time: 14:22:09
(UTC+00:00)

Envisat - Pass Details

Date: 03 July 2019
Orbit: 764 x 766 km, 98.1° (Epoch: 17 July)

Event Time Altitude Azimuth Distance (km) Brightness Sun altitude
Exits shadow 19:40:17 39° 315° (NW) 1,147 4.1 -32.4°
Drops below altitude 10° 19:43:34 10° 333° (NNW) 2,308 5.8 -33.1°
Sets 19:45:52 0° 336° (NNW) 3,226 6.6 -33.5°
